Weather History for Mountain Home, ID

Change the Weather History Date:

Thursday, June 27, 2013

  Actual Average Record
Temperature  
Mean Temperature 78 °F 71 °F  
Max Temperature 98 °F 87 °F 102 °F (2002)
Min Temperature 58 °F 54 °F 30 °F (1915)
Degree Days  
Heating Degree Days 0 1  
Month to date heating degree days 52 72  
Cooling Degree Days 13 7  
Month to date cooling degree days 106 113  
Growing Degree Days 28 (Base 50)    
Moisture  
Dew Point 51 °F    
Average Humidity 45    
Maximum Humidity 88    
Minimum Humidity 15    
Precipitation  
Precipitation 0.00 in 0.02 in 0.61 in (1911)
Month to date precipitation 0.25 0.58  
Sea Level Pressure  
Sea Level Pressure 30.07 in    
Wind  
Wind Speed 7 mph (NW)    
Max Wind Speed 16 mph    
Max Gust Speed -    
Visibility 10 miles    
Events      
T = Trace of Precipitation, MM = Missing Value Source: NWS Daily Summary

Daily Weather History Graph

Daily Weather History Graph

Search for Another Location

Airport:

Trip Planner

Search our weather history database for the weather conditions in past years. The results will help you decide how hot, cold, wet, or windy it might be!

Date:

Astronomy

Jun. 27, 2013 Rise Set
Actual Time 6:06 AM MDT 9:26 PM MDT
Civil Twilight 5:30 AM MDT 10:02 PM MDT
Nautical Twilight 4:44 AM MDT 10:48 PM MDT
Astronomical Twilight 3:48 AM MDT 11:44 PM MDT
Moon No Moon Rise 11:20 AM MDT (6/27)
Length of Visible Light 16h 31m
Length of Day
15h 20m
Waning Gibbous, 76% of the Moon is Illuminated
Jun 27
Waning Gibbous
Jun 29
Last Quarter
Jul 8
New
Jul 15
First Quarter
Jul 22
Full

Hourly Weather History & Observations

Time (MDT) Temp. Heat Index Dew Point Humidity Pressure Visibility Wind Dir Wind Speed Gust Speed Precip Events Conditions
12:59 AM 70.7 °F - 55.0 °F 58% 30.00 in 10.0 mi NW 8.1 mph - N/A   Clear
1:58 AM 66.4 °F - 57.7 °F 74% 30.02 in 10.0 mi WNW 9.2 mph - N/A   Clear
2:58 AM 63.5 °F - 57.4 °F 80% 30.03 in 10.0 mi WNW 9.2 mph - N/A   Clear
3:58 AM 60.8 °F - 57.2 °F 88% 30.04 in 10.0 mi West 8.1 mph - N/A   Clear
4:58 AM 59.9 °F - 55.9 °F 87% 30.06 in 10.0 mi West 5.8 mph - N/A   Clear
6:55 AM 60.8 °F - 55.4 °F 82% 30.09 in 10.0 mi NW 4.6 mph - N/A   Clear
7:58 AM 63.3 °F - 56.7 °F 79% 30.18 in 10.0 mi WNW 3.5 mph - N/A   Clear
8:58 AM 65.8 °F - 56.5 °F 72% 30.12 in 10.0 mi NNW 2.3 mph - N/A   Clear
9:58 AM 70.9 °F - 55.2 °F 58% 30.19 in 10.0 mi Variable 2.3 mph - N/A   Clear
10:58 AM 77.0 °F - 54.7 °F 46% 30.19 in 10.0 mi ESE 3.5 mph - N/A   Clear
11:58 AM 81.0 °F 80.8 °F 55.6 °F 42% 30.19 in 10.0 mi Variable 3.5 mph - N/A   Clear
12:58 PM 85.1 °F - 52.3 °F 32% 30.09 in 10.0 mi Variable 4.6 mph - N/A   Clear
1:58 PM 90.1 °F - 49.3 °F 25% 30.07 in 10.0 mi Variable 3.5 mph - N/A   Clear
2:58 PM 91.9 °F - 46.0 °F 21% 30.05 in 10.0 mi NW 9.2 mph - N/A   Clear
3:58 PM 94.3 °F - 45.0 °F 18% 30.03 in 10.0 mi NW 8.1 mph - N/A   Clear
4:58 PM 96.3 °F - 45.5 °F 18% 30.01 in 10.0 mi Variable 4.6 mph - N/A   Clear
5:58 PM 97.0 °F - 44.4 °F 16% 30.08 in 10.0 mi NNW 10.4 mph - N/A   Clear
6:58 PM 96.8 °F - 42.8 °F 16% 30.07 in 10.0 mi North 5.8 mph - N/A   Clear
7:58 PM 96.4 °F - 42.3 °F 15% 29.99 in 10.0 mi NNW 16.1 mph - N/A   Clear
8:58 PM 93.0 °F - 42.8 °F 18% 30.00 in 10.0 mi NNW 12.7 mph - N/A   Clear
9:58 PM 88.2 °F - 43.0 °F 21% 30.02 in 10.0 mi NNW 12.7 mph - N/A   Clear
10:58 PM 82.0 °F - 49.1 °F 32% 30.05 in 10.0 mi North 9.2 mph - N/A   Clear
11:58 PM 75.0 °F - 52.7 °F 46% 30.05 in 10.0 mi NW 9.2 mph - N/A   Clear